TimeEST,TemperatureF,Dew PointF,Humidity,Sea Level PressureIn,VisibilityMPH,Wind Direction,Wind SpeedMPH,Gust SpeedMPH,PrecipitationIn,Events,Conditions,WindDirDegrees,DateUTC
12:15 AM,44.6,42.8,93,30.26,10.0,Calm,Calm,-,N/A,,Clear,0,2013-01-26 05:15:00
12:35 AM,44.6,42.8,93,30.26,7.0,Calm,Calm,-,N/A,,Clear,0,2013-01-26 05:35:00
12:55 AM,44.6,42.8,93,30.26,7.0,Calm,Calm,-,N/A,,Clear,0,2013-01-26 05:55:00
1:15 AM,44.6,44.6,100,30.27,4.0,Calm,Calm,-,N/A,,Clear,0,2013-01-26 06:15:00
1:35 AM,44.6,42.8,93,30.26,7.0,Calm,Calm,-,N/A,,Clear,0,2013-01-26 06:35:00
1:55 AM,42.8,42.8,100,30.26,7.0,Calm,Calm,-,N/A,,Clear,0,2013-01-26 06:55:00
2:15 AM,42.8,42.8,100,30.26,5.0,Calm,Calm,-,N/A,,Clear,0,2013-01-26 07:15:00
2:35 AM,42.8,41.0,93,30.25,5.0,Calm,Calm,-,N/A,,Clear,0,2013-01-26 07:35:00
2:55 AM,42.8,42.8,100,30.24,4.0,Calm,Calm,-,N/A,,Clear,0,2013-01-26 07:55:00
3:15 AM,42.8,42.8,100,30.24,1.2,Calm,Calm,-,N/A,,Mist,0,2013-01-26 08:15:00
3:35 AM,42.8,42.8,100,30.24,0.2,Calm,Calm,-,N/A,Fog,Fog,0,2013-01-26 08:35:00
3:55 AM,42.8,42.8,100,30.23,0.2,North,-9999.0,-,N/A,Fog,Fog,0,2013-01-26 08:55:00
4:15 AM,42.8,41.0,93,30.24,0.5,Calm,Calm,-,N/A,Fog,Fog,0,2013-01-26 09:15:00
4:35 AM,41.0,41.0,100,30.24,0.2,Calm,Calm,-,N/A,Fog,Fog,0,2013-01-26 09:35:00
4:55 AM,41.0,41.0,100,30.23,0.2,Calm,Calm,-,N/A,Fog,Fog,0,2013-01-26 09:55:00
5:15 AM,41.0,41.0,100,30.24,0.2,Calm,Calm,-,N/A,Fog,Fog,0,2013-01-26 10:15:00
5:35 AM,41.0,41.0,100,30.24,0.2,Calm,Calm,-,N/A,Fog,Fog,0,2013-01-26 10:35:00
5:55 AM,41.0,41.0,100,30.24,0.2,Calm,Calm,-,N/A,Fog,Fog,0,2013-01-26 10:55:00
6:15 AM,41.0,39.2,93,30.25,0.2,Calm,Calm,-,N/A,Fog,Fog,0,2013-01-26 11:15:00
6:35 AM,41.0,41.0,100,30.25,0.2,Calm,Calm,-,N/A,Fog,Fog,0,2013-01-26 11:35:00
6:55 AM,41.0,39.2,93,30.26,2.5,Calm,Calm,-,N/A,,Clear,0,2013-01-26 11:55:00
7:15 AM,39.2,37.4,93,30.26,0.5,Calm,Calm,-,N/A,Fog,Fog,0,2013-01-26 12:15:00
7:35 AM,39.2,39.2,100,30.27,0.2,Calm,Calm,-,N/A,Fog,Fog,0,2013-01-26 12:35:00
8:15 AM,42.8,41.0,93,30.29,0.2,Calm,Calm,-,N/A,Fog,Fog,0,2013-01-26 13:15:00
8:35 AM,44.6,42.8,93,30.29,0.2,Calm,Calm,-,N/A,Fog,Fog,0,2013-01-26 13:35:00
8:55 AM,46.4,46.4,100,30.29,0.5,Calm,Calm,-,N/A,Fog,Fog,0,2013-01-26 13:55:00
9:15 AM,51.8,51.8,100,30.30,5.0,Calm,Calm,-,N/A,,Clear,0,2013-01-26 14:15:00
9:35 AM,53.6,53.6,100,30.31,10.0,Calm,Calm,-,N/A,,Clear,0,2013-01-26 14:35:00
9:55 AM,57.2,55.4,94,30.31,10.0,Calm,Calm,-,N/A,,Clear,0,2013-01-26 14:55:00
10:15 AM,62.6,55.4,77,30.31,10.0,Calm,Calm,-,N/A,,Clear,0,2013-01-26 15:15:00
10:35 AM,66.2,55.4,68,30.31,10.0,NNW,3.5,-,N/A,,Clear,330,2013-01-26 15:35:00
10:55 AM,68.0,55.4,64,30.31,10.0,NNW,4.6,-,N/A,,Clear,330,2013-01-26 15:55:00
11:15 AM,69.8,53.6,56,30.30,10.0,NW,6.9,-,N/A,,Clear,320,2013-01-26 16:15:00
11:35 AM,69.8,51.8,53,30.29,10.0,West,5.8,-,N/A,,Clear,280,2013-01-26 16:35:00
11:55 AM,71.6,50.0,46,30.28,10.0,NNW,4.6,-,N/A,,Scattered Clouds,340,2013-01-26 16:55:00
12:15 PM,71.6,48.2,43,30.28,10.0,NNW,8.1,-,N/A,,Scattered Clouds,330,2013-01-26 17:15:00
12:35 PM,73.4,48.2,41,30.27,10.0,NE,3.5,-,N/A,,Clear,50,2013-01-26 17:35:00
12:55 PM,73.4,48.2,41,30.26,10.0,WNW,5.8,-,N/A,,Scattered Clouds,300,2013-01-26 17:55:00
1:15 PM,73.4,48.2,41,30.25,10.0,NW,8.1,-,N/A,,Scattered Clouds,320,2013-01-26 18:15:00
1:35 PM,73.4,48.2,41,30.23,10.0,North,4.6,-,N/A,,Clear,360,2013-01-26 18:35:00
1:55 PM,73.4,46.4,38,30.22,10.0,North,4.6,-,N/A,,Scattered Clouds,360,2013-01-26 18:55:00
2:15 PM,73.4,48.2,41,30.21,10.0,North,4.6,-,N/A,,Scattered Clouds,10,2013-01-26 19:15:00
2:35 PM,73.4,48.2,41,30.20,10.0,North,5.8,-,N/A,,Clear,10,2013-01-26 19:35:00
2:55 PM,73.4,48.2,41,30.20,10.0,Calm,Calm,-,N/A,,Clear,0,2013-01-26 19:55:00
3:15 PM,73.4,48.2,41,30.20,10.0,West,6.9,-,N/A,,Clear,260,2013-01-26 20:15:00
3:35 PM,73.4,48.2,41,30.20,10.0,WNW,11.5,-,N/A,,Clear,290,2013-01-26 20:35:00
3:55 PM,73.4,48.2,41,30.19,10.0,NW,3.5,-,N/A,,Clear,320,2013-01-26 20:55:00
4:15 PM,73.4,48.2,41,30.19,10.0,North,4.6,-,N/A,,Clear,360,2013-01-26 21:15:00
4:35 PM,73.4,50.0,44,30.20,10.0,WNW,5.8,-,N/A,,Clear,300,2013-01-26 21:35:00
4:55 PM,71.6,50.0,46,30.20,10.0,NW,5.8,-,N/A,,Clear,310,2013-01-26 21:55:00
5:15 PM,71.6,51.8,50,30.20,10.0,NW,8.1,-,N/A,,Clear,310,2013-01-26 22:15:00
5:35 PM,69.8,51.8,53,30.21,10.0,WNW,8.1,-,N/A,,Clear,300,2013-01-26 22:35:00
5:55 PM,68.0,51.8,56,30.22,10.0,West,9.2,-,N/A,,Clear,280,2013-01-26 22:55:00
6:15 PM,66.2,53.6,64,30.22,10.0,WNW,6.9,-,N/A,,Clear,290,2013-01-26 23:15:00
6:35 PM,64.4,53.6,68,30.23,10.0,WNW,6.9,-,N/A,,Clear,290,2013-01-26 23:35:00
6:55 PM,62.6,53.6,72,30.23,10.0,NW,5.8,-,N/A,,Clear,310,2013-01-26 23:55:00
7:15 PM,62.6,53.6,72,30.23,10.0,WNW,6.9,-,N/A,,Clear,300,2013-01-27 00:15:00
7:35 PM,62.6,53.6,72,30.23,10.0,NW,4.6,-,N/A,,Clear,310,2013-01-27 00:35:00
7:55 PM,60.8,53.6,77,30.24,10.0,NW,3.5,-,N/A,,Clear,310,2013-01-27 00:55:00
8:15 PM,60.8,53.6,77,30.24,10.0,WNW,3.5,-,N/A,,Clear,300,2013-01-27 01:15:00
8:35 PM,59.0,53.6,82,30.24,10.0,Calm,Calm,-,N/A,,Clear,0,2013-01-27 01:35:00
8:55 PM,55.4,53.6,94,30.24,10.0,Calm,Calm,-,N/A,,Clear,0,2013-01-27 01:55:00
9:15 PM,55.4,53.6,94,30.25,10.0,Calm,Calm,-,N/A,,Clear,0,2013-01-27 02:15:00
9:35 PM,53.6,53.6,100,30.25,7.0,Calm,Calm,-,N/A,,Clear,0,2013-01-27 02:35:00
9:55 PM,53.6,53.6,100,30.25,10.0,Calm,Calm,-,N/A,,Clear,0,2013-01-27 02:55:00
10:15 PM,51.8,51.8,100,30.26,10.0,Calm,Calm,-,N/A,,Clear,0,2013-01-27 03:15:00
10:35 PM,51.8,51.8,100,30.26,5.0,Calm,Calm,-,N/A,,Clear,0,2013-01-27 03:35:00
10:55 PM,51.8,51.8,100,30.27,4.0,Calm,Calm,-,N/A,,Clear,0,2013-01-27 03:55:00
11:15 PM,51.8,51.8,100,30.27,0.5,Calm,Calm,-,N/A,Fog,Fog,0,2013-01-27 04:15:00
11:35 PM,50.0,50.0,100,30.27,0.8,Calm,Calm,-,N/A,,Mist,0,2013-01-27 04:35:00
11:55 PM,50.0,50.0,100,30.26,0.5,Calm,Calm,-,N/A,Fog,Fog,0,2013-01-27 04:55:00